This demonstration page uses our WeatherBlox Daily Observations layout. Learn more.

Left ArrowRight Arrow

Hourly Observations for June 26, 2017

Temp ( °F °C ) Dew Point ( °F °C ) Humidity (%) Winds ( mph kmh ) Pressure ( in mb ) Visibility ( mi km ) Precip ( " mm )
12:59 am 00:59 Partly Cloudy 77 25 62 16.7 60 60 W 6 9 30.05 1018 10 16 0.00 0.00
1:59 am 01:59 Mostly Clear 75 23.9 62 16.7 64 64 W 7 11 30.05 1018 10 16 0.00 0.00
2:59 am 02:59 Mostly Clear 74 23.3 62 16.7 67 67 WNW 7 11 30.05 1018 10 16 0.00 0.00
3:59 am 03:59 Clear 73 22.8 62 16.7 69 69 NW 10 17 30.05 1018 10 16 0.00 0.00
4:59 am 04:59 Mostly Clear 71 21.7 62 16.7 73 73 NNW 8 13 30.06 1018 10 16 0.00 0.00
5:59 am 05:59 Mostly Sunny 70 21.1 61 16.1 73 73 NW 7 11 30.07 1018 10 16 0.00 0.00
6:59 am 06:59 Partly Cloudy 73 22.8 62 16.7 69 69 NNW 6 9 30.09 1019 10 16 0.00 0.00
7:59 am 07:59 Mostly Sunny 76 24.4 60 15.6 58 58 NW 7 11 30.10 1019 10 16 0.00 0.00
8:59 am 08:59 Mostly Sunny 78 25.6 56 13.3 47 47 N 7 11 30.10 1019 10 16 0.00 0.00
9:59 am 09:59 Mostly Sunny 81 27.2 58 14.4 45 45 N 8 13 30.11 1020 10 16 0.00 0.00
10:59 am 10:59 Mostly Sunny 81 27.2 63 17.2 54 54 N 8 13 30.11 1020 10 16 0.00 0.00
11:59 am 11:59 Partly Cloudy 83 28.3 55 12.8 38 38 NNE 6 9 30.11 1020 10 16 0.00 0.00
12:59 pm 12:59 Partly Cloudy 84 28.9 54 12.2 36 36 NNW 5 7 30.10 1019 10 16 0.00 0.00
1:59 pm 13:59 Partly Cloudy 83 28.3 51 10.6 33 33 ENE 7 11 30.08 1019 10 16 0.00 0.00
2:59 pm 14:59 Partly Cloudy 84 28.9 54 12.2 36 36 VRB 5 7 30.07 1018 10 16 0.00 0.00
3:59 pm 15:59 Mostly Cloudy 83 28.3 55 12.8 38 38 E 7 11 30.06 1018 10 16 0.00 0.00
4:59 pm 16:59 Mostly Cloudy 83 28.3 55 12.8 38 38 ESE 9 15 30.04 1017 10 16 0.00 0.00
5:59 pm 17:59 Mostly Cloudy 82 27.8 54 12.2 38 38 ESE 10 17 30.03 1017 10 16 0.00 0.00
6:59 pm 18:59 Partly Cloudy 80 26.7 55 12.8 42 42 SE 8 13 30.03 1017 10 16 0.00 0.00
7:59 pm 19:59 Mostly Sunny 77 25 50 10 39 39 SE 8 13 30.03 1017 10 16 0.00 0.00
8:59 pm 20:59 Partly Cloudy 75 23.9 51 10.6 43 43 SSE 6 9 30.02 1017 10 16 0.00 0.00
9:59 pm 21:59 Partly Cloudy 74 23.3 54 12.2 50 50 S 7 11 30.04 1017 10 16 0.00 0.00
10:59 pm 22:59 Partly Cloudy 73 22.8 55 12.8 53 53 SSE 8 13 30.03 1017 10 16 0.00 0.00
11:59 pm 23:59 Partly Cloudy 72 22.2 58 14.4 61 61 S 5 7 30.04 1017 10 16 0.00 0.00

Powered by AerisWeather